| time (UTC) | temp C | wind direction | speed KPH | gust KPH | rain 1hr cm | rain 24hr cm | rain mn cm | humidity % | barometer mb |
| 20260510231048 | 30 | 263 | 0.0 | 11.3 | 0.00 | 0.00 | 0.00 | 68 | 1017.3 |
| 20260510230050 | 31 | 310 | 0.0 | 3.2 | 0.00 | 0.00 | 0.00 | 68 | 1017.4 |
| 20260510225101 | 31 | 275 | 0.0 | 12.9 | 0.00 | 0.00 | 0.00 | 68 | 1017.3 |
| 20260510222948 | 31 | 248 | 1.6 | 12.9 | 0.00 | 0.00 | 0.00 | 66 | 1017.2 |
| 20260510222012 | 31 | 302 | 4.8 | 17.7 | 0.00 | 0.00 | 0.00 | 68 | 1017.2 |
| 20260510220941 | 31 | 300 | 1.6 | 17.7 | 0.00 | 0.00 | 0.00 | 67 | 1017.4 |
| 20260510215912 | 31 | 281 | 3.2 | 16.1 | 0.00 | 0.00 | 0.00 | 66 | 1017.5 |
| 20260510214839 | 31 | 257 | 3.2 | 14.5 | 0.00 | 0.00 | 0.00 | 66 | 1017.5 |
| 20260510213857 | 32 | 258 | 4.8 | 24.1 | 0.00 | 0.00 | 0.00 | 66 | 1017.4 |
| 20260510212918 | 32 | 302 | 4.8 | 24.1 | 0.00 | 0.00 | 0.00 | 65 | 1017.5 |
| 20260510211846 | 32 | 330 | 3.2 | 16.1 | 0.00 | 0.00 | 0.00 | 66 | 1017.5 |
| 20260510210833 | 32 | 274 | 3.2 | 14.5 | 0.00 | 0.00 | 0.00 | 65 | 1017.5 |
| 20260510205840 | 32 | 300 | 3.2 | 17.7 | 0.00 | 0.00 | 0.00 | 64 | 1017.5 |
| 20260510204808 | 33 | 304 | 4.8 | 17.7 | 0.00 | 0.00 | 0.00 | 62 | 1017.5 |
| 20260510203811 | 32 | 229 | 3.2 | 16.1 | 0.00 | 0.00 | 0.00 | 63 | 1017.5 |
| 20260510202812 | 32 | 248 | 3.2 | 16.1 | 0.00 | 0.00 | 0.00 | 62 | 1017.4 |
| 20260510201748 | 33 | 314 | 4.8 | 22.5 | 0.00 | 0.00 | 0.00 | 61 | 1017.2 |
| 20260510200749 | 33 | 298 | 8.0 | 22.5 | 0.00 | 0.00 | 0.00 | 62 | 1017.3 |
| 20260510195746 | 34 | 258 | 3.2 | 19.3 | 0.00 | 0.00 | 0.00 | 59 | 1017.3 |
| 20260510194731 | 34 | 209 | 4.8 | 19.3 | 0.00 | 0.00 | 0.00 | 58 | 1017.3 |
| 20260510193728 | 34 | 252 | 3.2 | 14.5 | 0.00 | 0.00 | 0.00 | 59 | 1017.3 |
| 20260510192743 | 34 | 261 | 1.6 | 16.1 | 0.00 | 0.00 | 0.00 | 61 | 1017.4 |
| 20260510191742 | 33 | 180 | 4.8 | 16.1 | 0.00 | 0.00 | 0.00 | 63 | 1017.4 |
| 20260510190711 | 34 | 298 | 4.8 | 14.5 | 0.00 | 0.00 | 0.00 | 63 | 1017.4 |
| 20260510185729 | 35 | 253 | 3.2 | 14.5 | 0.00 | 0.00 | 0.00 | 59 | 1017.3 |
| 20260510184737 | 35 | 237 | 3.2 | 14.5 | 0.00 | 0.00 | 0.00 | 58 | 1017.4 |
| 20260510183759 | 35 | 242 | 3.2 | 19.3 | 0.00 | 0.00 | 0.00 | 59 | 1017.4 |
| 20260510182733 | 35 | 153 | 3.2 | 19.3 | 0.00 | 0.00 | 0.00 | 58 | 1017.6 |
| 20260510181721 | 35 | 163 | 1.6 | 17.7 | 0.00 | 0.00 | 0.00 | 59 | 1017.6 |
| 20260510180703 | 34 | 250 | 3.2 | 14.5 | 0.00 | 0.00 | 0.00 | 62 | 1017.9 |
| 20260510175723 | 34 | 251 | 3.2 | 12.9 | 0.00 | 0.00 | 0.00 | 60 | 1017.9 |
| 20260510174747 | 34 | 253 | 1.6 | 12.9 | 0.00 | 0.00 | 0.00 | 61 | 1018.0 |
| 20260510173810 | 33 | 221 | 3.2 | 14.5 | 0.00 | 0.00 | 0.00 | 61 | 1018.0 |
| 20260510172758 | 33 | 166 | 0.0 | 9.7 | 0.00 | 0.00 | 0.00 | 62 | 1018.2 |
| 20260510170605 | 34 | 185 | 1.6 | 11.3 | 0.00 | 0.00 | 0.00 | 61 | 1018.5 |
| 20260510165552 | 34 | 175 | 0.0 | 6.4 | 0.00 | 0.00 | 0.00 | 61 | 1018.5 |
| 20260510164521 | 33 | 165 | 0.0 | 8.0 | 0.00 | 0.00 | 0.00 | 61 | 1018.7 |
| 20260510163454 | 34 | 165 | 0.0 | 12.9 | 0.00 | 0.00 | 0.00 | 61 | 1018.6 |
| 20260510162424 | 33 | 248 | 0.0 | 12.9 | 0.00 | 0.00 | 0.00 | 62 | 1018.8 |
| 20260510161410 | 34 | 311 | 1.6 | 9.7 | 0.00 | 0.00 | 0.00 | 62 | 1018.7 |
| 20260510160436 | 33 | 190 | 0.0 | 9.7 | 0.00 | 0.00 | 0.00 | 63 | 1018.9 |
| 20260510155417 | 33 | 155 | 0.0 | 0.0 | 0.00 | 0.00 | 0.00 | 64 | 1018.8 |
| 20260510154442 | 32 | 171 | 0.0 | 9.7 | 0.00 | 0.00 | 0.00 | 65 | 1018.8 |
| 20260510153443 | 32 | 184 | 0.0 | 11.3 | 0.00 | 0.00 | 0.00 | 65 | 1018.9 |
| 20260510152448 | 31 | 171 | 1.6 | 14.5 | 0.00 | 0.00 | 0.00 | 66 | 1018.9 |
| 20260510151503 | 31 | 153 | 1.6 | 14.5 | 0.00 | 0.00 | 0.00 | 66 | 1018.9 |
| 20260510150452 | 31 | 159 | 1.6 | 9.7 | 0.00 | 0.00 | 0.00 | 66 | 1019.0 |
| 20260510145449 | 31 | 136 | 3.2 | 14.5 | 0.00 | 0.00 | 0.00 | 68 | 1019.0 |
| 20260510143405 | 30 | 209 | 1.6 | 11.3 | 0.00 | 0.00 | 0.00 | 72 | 1019.0 |
| 20260510142345 | 30 | 190 | 1.6 | 11.3 | 0.00 | 0.00 | 0.00 | 71 | 1018.9 |
| 20260510141327 | 30 | 171 | 0.0 | 1.6 | 0.00 | 0.00 | 0.00 | 73 | 1018.7 |
| 20260510140348 | 29 | 205 | 0.0 | 0.0 | 0.00 | 0.00 | 0.00 | 73 | 1018.7 |
| 20260510135339 | 28 | 155 | 0.0 | 0.0 | 0.00 | 0.00 | 0.00 | 73 | 1018.7 |
| 20260510134358 | 28 | 151 | 0.0 | 8.0 | 0.00 | 0.00 | 0.00 | 72 | 1018.8 |
| 20260510133359 | 27 | 157 | 0.0 | 8.0 | 0.00 | 0.00 | 0.00 | 72 | 1018.6 |
| 20260510132343 | 27 | 121 | 0.0 | 1.6 | 0.00 | 0.00 | 0.00 | 72 | 1018.4 |
| 20260510131353 | 27 | 193 | 0.0 | 6.4 | 0.00 | 0.00 | 0.00 | 71 | 1018.3 |
| 20260510125143 | 26 | 188 | 0.0 | 0.0 | 0.00 | 0.00 | 0.00 | 71 | 1018.3 |
| 20260510124121 | 25 | 155 | 0.0 | 0.0 | 0.00 | 0.00 | 0.00 | 71 | 1018.3 |
| 20260510121927 | 25 | 187 | 0.0 | 1.6 | 0.00 | 0.00 | 0.00 | 73 | 1018.0 |
| 20260510120916 | 24 | 190 | 0.0 | 0.0 | 0.00 | 0.00 | 0.00 | 74 | 1017.9 |
| 20260510114745 | 23 | 213 | 0.0 | 0.0 | 0.00 | 0.00 | 0.00 | 74 | 1017.5 |
| 20260510113717 | 23 | 213 | 0.0 | 0.0 | 0.00 | 0.00 | 0.00 | 74 | 1017.4 |
| 20260510112720 | 23 | 213 | 0.0 | 0.0 | 0.00 | 0.00 | 0.00 | 74 | 1017.2 |
| 20260510111701 | 23 | 213 | 0.0 | 0.0 | 0.00 | 0.00 | 0.00 | 74 | 1017.1 |
| 20260510110636 | 23 | 213 | 0.0 | 0.0 | 0.00 | 0.00 | 0.00 | 74 | 1016.9 |
| 20260510105626 | 23 | 185 | 0.0 | 0.0 | 0.00 | 0.00 | 0.00 | 74 | 1016.9 |
| 20260510103433 | 23 | 185 | 0.0 | 0.0 | 0.00 | 0.00 | 0.00 | 74 | 1016.5 |
| 20260510102446 | 23 | 185 | 0.0 | 0.0 | 0.00 | 0.00 | 0.00 | 74 | 1016.4 |
| 20260510101459 | 23 | 185 | 0.0 | 0.0 | 0.00 | 0.00 | 0.00 | 74 | 1016.2 |
| 20260510100520 | 23 | 185 | 0.0 | 0.0 | 0.00 | 0.00 | 0.00 | 74 | 1016.2 |
| 20260510095529 | 23 | 185 | 0.0 | 0.0 | 0.00 | 0.00 | 0.00 | 74 | 1016.1 |
| 20260510094502 | 23 | 185 | 0.0 | 0.0 | 0.00 | 0.00 | 0.00 | 74 | 1016.2 |
| 20260510093437 | 24 | 185 | 0.0 | 0.0 | 0.00 | 0.00 | 0.00 | 74 | 1015.9 |
| 20260510092438 | 24 | 185 | 0.0 | 0.0 | 0.00 | 0.00 | 0.00 | 75 | 1015.8 |
| 20260510091452 | 24 | 185 | 0.0 | 0.0 | 0.00 | 0.00 | 0.00 | 75 | 1015.8 |
| 20260510090442 | 24 | 185 | 0.0 | 0.0 | 0.00 | 0.00 | 0.00 | 75 | 1015.7 |
| 20260510085451 | 24 | 185 | 0.0 | 0.0 | 0.00 | 0.00 | 0.00 | 75 | 1015.6 |
| 20260510084433 | 24 | 185 | 0.0 | 0.0 | 0.00 | 0.00 | 0.00 | 75 | 1015.5 |
| 20260510083404 | 25 | 185 | 0.0 | 0.0 | 0.00 | 0.00 | 0.00 | 75 | 1015.4 |
| 20260510081201 | 25 | 186 | 0.0 | 0.0 | 0.00 | 0.00 | 0.00 | 75 | 1015.6 |
| 20260510080136 | 25 | 186 | 0.0 | 0.0 | 0.00 | 0.00 | 0.00 | 75 | 1015.7 |
| 20260510075155 | 25 | 186 | 0.0 | 0.0 | 0.00 | 0.00 | 0.00 | 75 | 1015.6 |
| 20260510071935 | 25 | 186 | 0.0 | 0.0 | 0.00 | 0.00 | 0.00 | 76 | 1015.8 |
| 20260510064545 | 25 | 186 | 0.0 | 0.0 | 0.00 | 0.00 | 0.00 | 76 | 1015.9 |
| 20260510062450 | 25 | 186 | 0.0 | 0.0 | 0.00 | 0.00 | 0.00 | 76 | 1016.2 |
| 20260510061505 | 25 | 186 | 0.0 | 0.0 | 0.00 | 0.00 | 0.00 | 76 | 1016.7 |
| 20260510060432 | 25 | 186 | 0.0 | 0.0 | 0.00 | 0.00 | 0.00 | 76 | 1016.7 |
| 20260510055408 | 25 | 186 | 0.0 | 0.0 | 0.00 | 0.00 | 0.00 | 77 | 1016.8 |
| 20260510054431 | 25 | 187 | 0.0 | 0.0 | 0.00 | 0.00 | 0.00 | 77 | 1016.9 |
| 20260510052232 | 26 | 198 | 0.0 | 0.0 | 0.00 | 0.00 | 0.00 | 77 | 1017.1 |
| 20260510042725 | 26 | 190 | 0.0 | 0.0 | 0.00 | 0.00 | 0.00 | 79 | 1017.5 |
| 20260510041706 | 26 | 200 | 0.0 | 0.0 | 0.00 | 0.00 | 0.00 | 78 | 1017.5 |
| 20260510040644 | 26 | 290 | 0.0 | 0.0 | 0.00 | 0.00 | 0.00 | 78 | 1017.3 |
| 20260510035617 | 26 | 290 | 0.0 | 0.0 | 0.00 | 0.00 | 0.00 | 78 | 1017.1 |
| 20260510034604 | 26 | 290 | 0.0 | 0.0 | 0.00 | 0.00 | 0.00 | 78 | 1017.1 |
| 20260510033538 | 26 | 290 | 0.0 | 0.0 | 0.00 | 0.00 | 0.00 | 78 | 1017.0 |
| 20260510032544 | 26 | 290 | 0.0 | 0.0 | 0.00 | 0.00 | 0.00 | 78 | 1016.9 |
| 20260510031602 | 26 | 290 | 0.0 | 0.0 | 0.00 | 0.00 | 0.00 | 78 | 1017.1 |
| 20260510030541 | 26 | 290 | 0.0 | 0.0 | 0.00 | 0.00 | 0.00 | 78 | 1017.2 |
| 20260510025541 | 26 | 290 | 0.0 | 0.0 | 0.00 | 0.00 | 0.00 | 77 | 1017.1 |
| 20260510024551 | 27 | 290 | 0.0 | 0.0 | 0.00 | 0.00 | 0.00 | 76 | 1017.1 |
| 20260510023528 | 27 | 290 | 0.0 | 0.0 | 0.00 | 0.00 | 0.00 | 76 | 1017.1 |
| 20260510022542 | 27 | 290 | 0.0 | 0.0 | 0.00 | 0.00 | 0.00 | 76 | 1017.2 |
| 20260510021548 | 27 | 290 | 0.0 | 0.0 | 0.00 | 0.00 | 0.00 | 75 | 1017.1 |
| 20260510020549 | 27 | 290 | 0.0 | 0.0 | 0.00 | 0.00 | 0.00 | 74 | 1016.9 |
| 20260510014414 | 27 | 290 | 0.0 | 0.0 | 0.00 | 0.00 | 0.00 | 73 | 1016.6 |
| 20260510013430 | 28 | 290 | 0.0 | 0.0 | 0.00 | 0.00 | 0.00 | 73 | 1016.4 |
| 20260510011325 | 28 | 313 | 0.0 | 4.8 | 0.00 | 0.00 | 0.00 | 72 | 1016.1 |
| 20260510010325 | 28 | 287 | 0.0 | 0.0 | 0.00 | 0.00 | 0.00 | 70 | 1016.1 |
| 20260510005328 | 28 | 312 | 0.0 | 4.8 | 0.00 | 0.00 | 0.00 | 68 | 1015.8 |
| 20260510004342 | 28 | 305 | 0.0 | 11.3 | 0.00 | 0.00 | 0.00 | 68 | 1015.7 |
| 20260510003354 | 29 | 267 | 0.0 | 6.4 | 0.00 | 0.00 | 0.00 | 67 | 1015.6 |
| 20260510002409 | 29 | 305 | 1.6 | 11.3 | 0.00 | 0.00 | 0.00 | 66 | 1015.4 |
| 20260510001411 | 29 | 289 | 0.0 | 9.7 | 0.00 | 0.00 | 0.00 | 65 | 1015.2 |
| 20260510000413 | 30 | 275 | 1.6 | 14.5 | 0.00 | 0.00 | 0.00 | 64 | 1015.0 |
| 20260509235402 | 30 | 282 | 1.6 | 14.5 | 0.00 | 0.00 | 0.00 | 62 | 1014.8 |
| 20260509234346 | 30 | 259 | 0.0 | 3.2 | 0.00 | 0.00 | 0.00 | 59 | 1014.7 |
| 20260509233333 | 31 | 304 | 0.0 | 4.8 | 0.00 | 0.00 | 0.00 | 58 | 1014.5 |
| 20260509232348 | 31 | 236 | 0.0 | 8.0 | 0.00 | 0.00 | 0.00 | 57 | 1014.6 |
| 20260509231404 | 32 | 227 | 0.0 | 3.2 | 0.00 | 0.00 | 0.00 | 57 | 1014.6 |